When you browse on this site, cookies collect data to enhance your experience and personalize the content and advertising you see.
Visit our Privacy Policy to learn more. By continuing to use the site, you agree to this use of cookies and data.
  • In Hungary
  • List of Countries
  • For 7 days
  • Water Temperature
  • Satellite Maps
  • Weather Map
  • News
  • Weather Widgets
  • user-avatar
    Login

    Hourly Weather Police

    Today, 22 February, Friday

    Time Temperature Precipitation Wind Pressure Humidity
    00:00 +5°C° 0.6 mm 5 mps 767 mmHg 90%
    01:00 +4°C° 0 mm 4 mps 768 mmHg 91%
    02:00 +2°C° 0 mm 5 mps 769 mmHg 88%
    03:00 +1°C° 0 mm 5 mps 770 mmHg 85%
    04:00 -1°C° 0 mm 6 mps 770 mmHg 82%
    05:00 -1°C° 0 mm 5 mps 772 mmHg 79%
    06:00 -1°C° 0 mm 5 mps 773 mmHg 76%
    07:00 -2°C° 0 mm 5 mps 775 mmHg 74%
    08:00 -2°C° 0 mm 5 mps 776 mmHg 68%
    09:00 -2°C° 0 mm 5 mps 777 mmHg 62%
    10:00 -1°C° 0 mm 5 mps 777 mmHg 57%
    11:00 -1°C° 0 mm 4 mps 778 mmHg 54%
    12:00 0°C° 0 mm 4 mps 779 mmHg 51%
    13:00 +1°C° 0 mm 4 mps 779 mmHg 48%
    14:00 +2°C° 0 mm 3 mps 780 mmHg 48%
    15:00 +1°C° 0 mm 3 mps 780 mmHg 48%
    16:00 +1°C° 0 mm 3 mps 780 mmHg 48%
    17:00 +1°C° 0 mm 2 mps 781 mmHg 52%
    18:00 -1°C° 0 mm 2 mps 781 mmHg 56%
    19:00 -2°C° 0 mm 2 mps 781 mmHg 60%
    20:00 -2°C° 0 mm 2 mps 782 mmHg 59%
    21:00 -2°C° 0 mm 2 mps 782 mmHg 59%
    22:00 -2°C° 0 mm 2 mps 782 mmHg 58%
    23:00 -2°C° 0 mm 2 mps 783 mmHg 56%

    Tomorrow, 23 February, Saturday

    Time Temperature Precipitation Wind Pressure Humidity
    00:00 -2°C° 0 mm 2 mps 783 mmHg 54%
    01:00 -4°C° 0 mm 3 mps 783 mmHg 52%
    02:00 -4°C° 0 mm 3 mps 783 mmHg 51%
    03:00 -4°C° 0 mm 3 mps 782 mmHg 50%
    04:00 -4°C° 0 mm 3 mps 782 mmHg 48%
    05:00 -4°C° 0 mm 3 mps 782 mmHg 48%
    06:00 -3°C° 0 mm 2 mps 782 mmHg 48%
    07:00 -3°C° 0 mm 2 mps 782 mmHg 48%
    08:00 -2°C° 0 mm 3 mps 782 mmHg 45%
    09:00 -1°C° 0 mm 3 mps 782 mmHg 42%
    10:00 0°C° 0 mm 3 mps 782 mmHg 39%
    11:00 +1°C° 0 mm 3 mps 782 mmHg 36%
    12:00 +2°C° 0 mm 3 mps 782 mmHg 34%
    13:00 +3°C° 0 mm 3 mps 782 mmHg 31%
    14:00 +3°C° 0 mm 3 mps 781 mmHg 32%
    15:00 +3°C° 0 mm 3 mps 781 mmHg 34%
    16:00 +4°C° 0 mm 2 mps 780 mmHg 35%
    17:00 +3°C° 0 mm 2 mps 780 mmHg 38%
    18:00 +2°C° 0 mm 2 mps 780 mmHg 41%
    19:00 +1°C° 0 mm 2 mps 780 mmHg 44%
    20:00 -1°C° 0 mm 2 mps 780 mmHg 45%
    21:00 -1°C° 0 mm 2 mps 780 mmHg 45%
    22:00 -1°C° 0 mm 2 mps 780 mmHg 46%
    23:00 -1°C° 0 mm 2 mps 780 mmHg 47%

    Day after tomorrow, 24 February, Sunday

    Time Temperature Precipitation Wind Pressure Humidity
    00:00 -1°C° 0 mm 2 mps 779 mmHg 48%
    01:00 -1°C° 0 mm 2 mps 779 mmHg 49%
    02:00 -1°C° 0 mm 2 mps 779 mmHg 50%
    03:00 -1°C° 0 mm 2 mps 779 mmHg 51%
    04:00 -1°C° 0 mm 2 mps 779 mmHg 51%
    05:00 -1°C° 0 mm 2 mps 779 mmHg 51%
    06:00 -1°C° 0 mm 2 mps 779 mmHg 52%
    07:00 -1°C° 0 mm 2 mps 779 mmHg 52%
    08:00 +2°C° 0 mm 2 mps 779 mmHg 49%
    09:00 +3°C° 0 mm 2 mps 779 mmHg 45%
    10:00 +4°C° 0 mm 2 mps 779 mmHg 42%
    11:00 +5°C° 0 mm 2 mps 779 mmHg 41%
    12:00 +7°C° 0 mm 2 mps 779 mmHg 40%
    13:00 +8°C° 0 mm 2 mps 779 mmHg 39%
    14:00 +8°C° 0 mm 2 mps 779 mmHg 44%
    15:00 +8°C° 0 mm 2 mps 778 mmHg 48%
    16:00 +8°C° 0 mm 2 mps 778 mmHg 52%
    17:00 +6°C° 0 mm 2 mps 778 mmHg 56%
    18:00 +5°C° 0 mm 2 mps 778 mmHg 61%
    19:00 +4°C° 0 mm 2 mps 778 mmHg 65%
    20:00 +4°C° 0 mm 2 mps 779 mmHg 66%
    21:00 +3°C° 0 mm 2 mps 779 mmHg 67%
    22:00 +3°C° 0 mm 2 mps 779 mmHg 68%
    23:00 +3°C° 0 mm 2 mps 779 mmHg 67%

    25 February, Monday

    Time Temperature Precipitation Wind Pressure Humidity
    00:00 +3°C° 0 mm 2 mps 779 mmHg 67%
    01:00 +3°C° 0 mm 2 mps 779 mmHg 67%
    02:00 +2°C° 0 mm 2 mps 779 mmHg 68%
    03:00 +2°C° 0 mm 2 mps 779 mmHg 70%
    04:00 +2°C° 0 mm 2 mps 779 mmHg 71%
    05:00 +2°C° 0 mm 2 mps 779 mmHg 73%
    06:00 +2°C° 0 mm 2 mps 779 mmHg 74%
    07:00 +2°C° 0 mm 2 mps 779 mmHg 76%
    08:00 +3°C° 0 mm 2 mps 779 mmHg 71%
    09:00 +6°C° 0 mm 1 mps 779 mmHg 67%
    10:00 +7°C° 0 mm 1 mps 779 mmHg 62%
    11:00 +8°C° 0 mm 1 mps 779 mmHg 58%
    12:00 +9°C° 0 mm 2 mps 779 mmHg 54%
    13:00 +10°C° 0 mm 2 mps 779 mmHg 49%
    14:00 +10°C° 0 mm 2 mps 778 mmHg 51%
    15:00 +10°C° 0 mm 2 mps 778 mmHg 53%
    16:00 +10°C° 0 mm 2 mps 778 mmHg 54%
    17:00 +9°C° 0 mm 2 mps 778 mmHg 59%
    18:00 +8°C° 0 mm 2 mps 777 mmHg 64%
    19:00 +6°C° 0 mm 2 mps 777 mmHg 69%
    20:00 +6°C° 0 mm 2 mps 777 mmHg 71%
    21:00 +6°C° 0 mm 2 mps 777 mmHg 73%
    22:00 +4°C° 0 mm 3 mps 777 mmHg 74%
    23:00 +4°C° 0 mm 3 mps 776 mmHg 75%

    26 February, Tuesday

    Time Temperature Precipitation Wind Pressure Humidity
    00:00 +4°C° 0 mm 3 mps 776 mmHg 76%
    01:00 +4°C° 0 mm 3 mps 775 mmHg 76%
    02:00 +3°C° 0 mm 3 mps 775 mmHg 75%
    03:00 +3°C° 0 mm 4 mps 775 mmHg 73%
    04:00 +3°C° 0 mm 4 mps 774 mmHg 71%
    05:00 +3°C° 0 mm 4 mps 774 mmHg 71%
    06:00 +3°C° 0 mm 4 mps 774 mmHg 70%
    07:00 +2°C° 0 mm 3 mps 774 mmHg 69%
    08:00 +3°C° 0 mm 4 mps 774 mmHg 68%
    09:00 +4°C° 0 mm 4 mps 774 mmHg 66%
    10:00 +6°C° 0 mm 4 mps 774 mmHg 65%
    11:00 +6°C° 0 mm 4 mps 774 mmHg 65%
    12:00 +7°C° 0 mm 4 mps 774 mmHg 66%
    13:00 +8°C° 0 mm 4 mps 774 mmHg 66%
    14:00 +8°C° 0 mm 4 mps 773 mmHg 68%
    15:00 +9°C° 0 mm 3 mps 773 mmHg 70%
    16:00 +8°C° 0 mm 3 mps 773 mmHg 72%
    17:00 +7°C° 0 mm 2 mps 773 mmHg 78%
    18:00 +6°C° 0 mm 2 mps 773 mmHg 83%
    19:00 +6°C° 0 mm 1 mps 773 mmHg 89%
    20:00 +6°C° 0 mm 1 mps 773 mmHg 88%
    21:00 +6°C° 0 mm 1 mps 773 mmHg 88%
    22:00 +5°C° 0 mm 0 mps 773 mmHg 87%
    23:00 +5°C° 0 mm 0 mps 773 mmHg 89%

    27 February, Wednesday

    Time Temperature Precipitation Wind Pressure Humidity
    00:00 +5°C° 0 mm 1 mps 773 mmHg 90%
    01:00 +5°C° 0 mm 1 mps 773 mmHg 92%
    02:00 +5°C° 0 mm 1 mps 773 mmHg 92%
    03:00 +5°C° 0 mm 1 mps 773 mmHg 93%
    04:00 +5°C° 0 mm 1 mps 772 mmHg 93%
    05:00 +5°C° 0 mm 1 mps 772 mmHg 93%
    06:00 +4°C° 0 mm 1 mps 772 mmHg 92%
    07:00 +4°C° 0 mm 1 mps 771 mmHg 92%
    08:00 +6°C° 0 mm 1 mps 771 mmHg 86%
    09:00 +6°C° 0 mm 2 mps 771 mmHg 80%
    10:00 +7°C° 0 mm 2 mps 771 mmHg 74%
    11:00 +9°C° 0 mm 2 mps 770 mmHg 69%
    12:00 +10°C° 0 mm 2 mps 770 mmHg 63%
    13:00 +12°C° 0 mm 2 mps 769 mmHg 58%
    14:00 +12°C° 0 mm 2 mps 768 mmHg 57%
    15:00 +12°C° 0 mm 2 mps 768 mmHg 57%
    16:00 +13°C° 0 mm 2 mps 767 mmHg 56%
    17:00 +10°C° 0 mm 2 mps 766 mmHg 62%
    18:00 +9°C° 0 mm 2 mps 766 mmHg 68%
    19:00 +7°C° 0 mm 2 mps 766 mmHg 74%
    20:00 +7°C° 0 mm 2 mps 765 mmHg 75%
    21:00 +6°C° 0 mm 2 mps 765 mmHg 76%
    22:00 +5°C° 0 mm 3 mps 764 mmHg 78%
    23:00 +5°C° 0 mm 3 mps 764 mmHg 78%
    Show more